QPF
0.02 0.02 0.03 0.03 0.02 0.01 0.01 0.04 0.02 0.01 0.01 0.00 0.01 0.02 0.03 0.02 0.03 0.05 0.02 0.02 0.02 0.00 0.00 0.00 0.00 0.00 0.00 0.00 0.00 0.00 0.00 0.00 0.00 0.00 0.00 0.00 0.00 0.00 0.00 0.00 0.00 0.00 0.00 0.00 0.00 0.00 0.00 0.00 0.00 0.00 0.00 0.00 0.00 0.00
0.03 0.03 0.02 0.01 0.00 0.01 0.02 0.03 0.02 0.01 0.01 0.02 0.02 0.02 0.03 0.01 0.00 0.02 0.02 0.02 0.03 0.01 0.00 0.00 0.00 0.00 0.00 0.01 0.01 0.01 0.00 0.00 0.00 0.00 0.00 0.00 0.00 0.00 0.00 0.00 0.00 0.00 0.00 0.00 0.00 0.00 0.00 0.00 0.00 0.00 0.00 0.00 0.00 0.00
0.03 0.04 0.04 0.04 0.05 0.04 0.02 0.04 0.02 0.00 0.00 0.00 0.00 0.02 0.01 0.01 0.03 0.05 0.01 0.00 0.00 0.00 0.00 0.00 0.00 0.00 0.00 0.00 0.00 0.01 0.00 0.00 0.00 0.00 0.00 0.01 0.01 0.00 0.00 0.00 0.00 0.00 0.00 0.00 0.00 0.00 0.00 0.00 0.00 0.00 0.00 0.00 0.00 0.00
0.05 0.02 0.01 0.00 0.00 0.02 0.02 0.02 0.00 0.01 0.01 0.01 0.00 0.00 0.00 0.01 0.02 0.06 0.02 0.00 0.00 0.01 0.01 0.00 0.00 0.00 0.00 0.00 0.00 0.00 0.00 0.00 0.01 0.01 0.01 0.01 0.00 0.00 0.00 0.00 0.00 0.00 0.00 0.00 0.00 0.00 0.00 0.00 0.00 0.00 0.00 0.00 0.00 0.00
0.01 0.00 0.01 0.00 0.01 0.02 0.05 0.05 0.02 0.00 0.01 0.01 0.01 0.00 0.00 0.01 0.02 0.02 0.00 0.00 0.00 0.00 0.00 0.00 0.00 0.00 0.00 0.00 0.00 0.00 0.00 0.00 0.01 0.02 0.01 0.01 0.00 0.00 0.00 0.00 0.00 0.00 0.00 0.00 0.00 0.00 0.00 0.00 0.00 0.00 0.00 0.00 0.00 0.00
0.04 0.04 0.03 0.04 0.04 0.04 0.04 0.05 0.03 0.02 0.02 0.01 0.02 0.02 0.01 0.01 0.02 0.00 0.00 0.00 0.00 0.02 0.03 0.01 0.00 0.00 0.00 0.00 0.00 0.00 0.00 0.01 0.01 0.02 0.02 0.01 0.00 0.01 0.00 0.00 0.00 0.00 0.00 0.00 0.00 0.00 0.00 0.00 0.00 0.00 0.00 0.00 0.00 0.00
0.03 0.01 0.08 0.07 0.03 0.01 0.00 0.00 0.01 0.01 0.00 0.00 0.00 0.02 0.03 0.04 0.02 0.00 0.00 0.01 0.00 0.02 0.05 0.02 0.00 0.00 0.00 0.00 0.00 0.00 0.00 0.00 0.00 0.01 0.02 0.02 0.00 0.00 0.00 0.00 0.00 0.00 0.00 0.00 0.00 0.00 0.00 0.00 0.00 0.00 0.00 0.00 0.00 0.00
0.05 0.07 0.09 0.06 0.04 0.06 0.04 0.03 0.01 0.00 0.00 0.00 0.01 0.02 0.04 0.05 0.04 0.01 0.01 0.05 0.05 0.02 0.01 0.00 0.00 0.00 0.00 0.00 0.00 0.00 0.00 0.00 0.00 0.00 0.00 0.00 0.00 0.00 0.00 0.00 0.00 0.00 0.00 0.00 0.00 0.00 0.00 0.00 0.00 0.00 0.00 0.00 0.00 0.00
0.02 0.04 0.04 0.02 0.02 0.04 0.03 0.01 0.00 0.00 0.00 0.00 0.04 0.05 0.03 0.00 0.00 0.00 0.01 0.00 0.01 0.02 0.00 0.00 0.00 0.00 0.00 0.00 0.00 0.00 0.00 0.00 0.00 0.00 0.00 0.00 0.00 0.00 0.00 0.00 0.00 0.00 0.00 0.00 0.00 0.00 0.00 0.00 0.00 0.00 0.00 0.00 0.00 0.00
0.01 0.00 0.00 0.01 0.04 0.01 0.01 0.01 0.00 0.00 0.00 0.02 0.01 0.00 0.00 0.00 0.00 0.00 0.00 0.00 0.00 0.00 0.00 0.00 0.00 0.00 0.00 0.00 0.00 0.00 0.00 0.00 0.00 0.00 0.00 0.00 0.00 0.00 0.00 0.00 0.00 0.00 0.00 0.00 0.00 0.00 0.00 0.00 0.00 0.00 0.00 0.00 0.00 0.00
0.00 0.00 0.00 0.00 0.01 0.00 0.01 0.01 0.02 0.01 0.00 0.00 0.00 0.00 0.00 0.00 0.00 0.00 0.00 0.00 0.00 0.00 0.00 0.00 0.00 0.00 0.00 0.00 0.00 0.00 0.00 0.00 0.00 0.00 0.00 0.00 0.00 0.00 0.00 0.00 0.00 0.00 0.00 0.00 0.00 0.00 0.00 0.00 0.00 0.00 0.00 0.00 0.00 0.00
0.00 0.00 0.00 0.00 0.01 0.02 0.02 0.02 0.01 0.00 0.00 0.00 0.00 0.00 0.00 0.00 0.00 0.00 0.00 0.00 0.00 0.00 0.00 0.00 0.00 0.00 0.00 0.00 0.00 0.00 0.00 0.00 0.00 0.00 0.00 0.00 0.00 0.00 0.00 0.00 0.00 0.00 0.00 0.00 0.00 0.00 0.00 0.00 0.00 0.00 0.00 0.00 0.00 0.00
0.00 0.00 0.00 0.00 0.00 0.00 0.01 0.01 0.00 0.00 0.00 0.00 0.00 0.00 0.00 0.00 0.00 0.00 0.00 0.00 0.00 0.00 0.00 0.00 0.00 0.00 0.00 0.00 0.00 0.00 0.00 0.00 0.00 0.00 0.00 0.00 0.00 0.00 0.00 0.00 0.00 0.00 0.00 0.00 0.00 0.00 0.00 0.00 0.00 0.00 0.00 0.00 0.00 0.00
0.00 0.00 0.00 0.00 0.00 0.00 0.00 0.00 0.00 0.00 0.00 0.00 0.00 0.00 0.00 0.00 0.00 0.00 0.00 0.00 0.00 0.00 0.00 0.00 0.00 0.00 0.00 0.00 0.00 0.00 0.00 0.00 0.00 0.00 0.00 0.00 0.00 0.00 0.00 0.00 0.00 0.00 0.00 0.00 0.00 0.00 0.00 0.00 0.00 0.00 0.00 0.00 0.00 0.00
0.00 0.00 0.00 0.00 0.00 0.00 0.00 0.00 0.00 0.00 0.00 0.00 0.00 0.00 0.00 0.00 0.00 0.00 0.00 0.00 0.00 0.00 0.00 0.00 0.00 0.00 0.00 0.00 0.00 0.00 0.00 0.00 0.00 0.00 0.00 0.00 0.00 0.00 0.00 0.00 0.00 0.00 0.00 0.00 0.00 0.00 0.00 0.00 0.00 0.00 0.00 0.00 0.00 0.00
0.00 0.00 0.00 0.00 0.00 0.00 0.00 0.00 0.00 0.00 0.00 0.00 0.00 0.00 0.00 0.00 0.00 0.00 0.00 0.00 0.00 0.00 0.00 0.00 0.00 0.00 0.00 0.00 0.00 0.00 0.00 0.00 0.00 0.00 0.00 0.00 0.00 0.00 0.00 0.00 0.00 0.00 0.00 0.00 0.00 0.00 0.00 0.00 0.00 0.00 0.00 0.00 0.00 0.00
0.00 0.00 0.00 0.00 0.00 0.00 0.00 0.00 0.00 0.00 0.00 0.00 0.00 0.00 0.00 0.00 0.00 0.00 0.00 0.00 0.00 0.00 0.00 0.00 0.00 0.00 0.00 0.00 0.00 0.00 0.00 0.00 0.00 0.00 0.00 0.00 0.00 0.00 0.00 0.00 0.00 0.00 0.00 0.00 0.00 0.00 0.00 0.00 0.00 0.00 0.00 0.00 0.00 0.00
0.00 0.00 0.00 0.00 0.00 0.00 0.00 0.00 0.00 0.00 0.00 0.00 0.00 0.00 0.00 0.00 0.00 0.00 0.00 0.00 0.00 0.00 0.00 0.00 0.00 0.00 0.00 0.00 0.00 0.00 0.00 0.00 0.00 0.00 0.00 0.00 0.00 0.00 0.00 0.00 0.00 0.00 0.00 0.00 0.00 0.00 0.00 0.00 0.00 0.00 0.00 0.00 0.00 0.00
0.00 0.00 0.00 0.00 0.00 0.00 0.00 0.00 0.00 0.00 0.00 0.00 0.00 0.00 0.00 0.00 0.00 0.00 0.00 0.00 0.00 0.00 0.00 0.00 0.00 0.00 0.00 0.00 0.00 0.00 0.00 0.00 0.00 0.00 0.00 0.00 0.00 0.00 0.00 0.00 0.00 0.00 0.00 0.00 0.00 0.00 0.00 0.00 0.00 0.00 0.00 0.00 0.00 0.00
0.00 0.00 0.00 0.00 0.00 0.00 0.00 0.00 0.00 0.00 0.00 0.00 0.00 0.00 0.00 0.00 0.00 0.00 0.00 0.00 0.00 0.00 0.00 0.00 0.00 0.00 0.00 0.00 0.00 0.00 0.00 0.00 0.00 0.00 0.00 0.00 0.00 0.00 0.00 0.00 0.00 0.00 0.00 0.00 0.00 0.00 0.00 0.00 0.00 0.00 0.00 0.00 0.00 0.00
0.00 0.00 0.00 0.00 0.00 0.00 0.00 0.00 0.00 0.00 0.00 0.00 0.00 0.00 0.00 0.00 0.00 0.00 0.00 0.00 0.00 0.00 0.00 0.00 0.00 0.00 0.00 0.00 0.00 0.00 0.00 0.00 0.00 0.00 0.00 0.00 0.00 0.00 0.00 0.00 0.00 0.00 0.00 0.00 0.00 0.00 0.00 0.00 0.00 0.00 0.00 0.00 0.00 0.00
0.00 0.00 0.00 0.00 0.00 0.00 0.00 0.00 0.00 0.00 0.00 0.00 0.00 0.00 0.00 0.00 0.00 0.00 0.00 0.00 0.00 0.00 0.00 0.00 0.00 0.00 0.00 0.00 0.00 0.00 0.00 0.00 0.00 0.00 0.00 0.00 0.00 0.00 0.00 0.00 0.00 0.00 0.00 0.00 0.00 0.00 0.00 0.00 0.00 0.00 0.00 0.00 0.00 0.00
0.00 0.00 0.00 0.00 0.00 0.00 0.00 0.00 0.00 0.00 0.00 0.00 0.00 0.00 0.00 0.00 0.00 0.00 0.00 0.00 0.00 0.00 0.00 0.00 0.00 0.00 0.00 0.00 0.00 0.00 0.00 0.00 0.00 0.00 0.00 0.00 0.00 0.00 0.00 0.00 0.00 0.00 0.00 0.00 0.00 0.00 0.00 0.00 0.00 0.00 0.00 0.00 0.00 0.00
0.00 0.00 0.00 0.00 0.00 0.00 0.00 0.00 0.00 0.00 0.00 0.00 0.00 0.00 0.00 0.00 0.00 0.00 0.00 0.00 0.00 0.00 0.00 0.00 0.00 0.00 0.00 0.00 0.00 0.00 0.00 0.00 0.00 0.00 0.00 0.00 0.00 0.00 0.00 0.00 0.00 0.00 0.00 0.00 0.00 0.00 0.00 0.00 0.00 0.00 0.00 0.00 0.00 0.00
0.00 0.00 0.00 0.00 0.00 0.00 0.00 0.00 0.00 0.00 0.00 0.00 0.00 0.00 0.00 0.00 0.00 0.00 0.00 0.00 0.00 0.00 0.00 0.00 0.00 0.00 0.00 0.00 0.00 0.00 0.00 0.00 0.00 0.00 0.00 0.00 0.00 0.00 0.00 0.00 0.00 0.00 0.00 0.00 0.00 0.00 0.00 0.00 0.00 0.00 0.00 0.00 0.00 0.00
0.00 0.00 0.00 0.00 0.00 0.00 0.00 0.00 0.00 0.00 0.00 0.00 0.00 0.00 0.00 0.00 0.00 0.00 0.00 0.00 0.00 0.00 0.00 0.00 0.00 0.00 0.00 0.00 0.00 0.00 0.00 0.00 0.00 0.00 0.00 0.00 0.00 0.00 0.00 0.00 0.00 0.00 0.00 0.00 0.00 0.00 0.00 0.00 0.00 0.00 0.00 0.00 0.00 0.00
0.00 0.00 0.00 0.00 0.00 0.00 0.00 0.00 0.00 0.00 0.00 0.00 0.00 0.00 0.00 0.00 0.00 0.00 0.00 0.00 0.00 0.00 0.00 0.00 0.00 0.00 0.00 0.00 0.00 0.00 0.00 0.00 0.00 0.00 0.00 0.00 0.00 0.00 0.00 0.00 0.00 0.00 0.00 0.00 0.00 0.00 0.00 0.00 0.00 0.00 0.00 0.00 0.00 0.00
0.00 0.00 0.00 0.00 0.00 0.00 0.00 0.00 0.00 0.00 0.00 0.00 0.00 0.00 0.00 0.00 0.00 0.00 0.00 0.00 0.00 0.00 0.00 0.00 0.00 0.00 0.00 0.00 0.00 0.00 0.00 0.00 0.00 0.00 0.00 0.00 0.00 0.00 0.00 0.00 0.00 0.00 0.00 0.00 0.00 0.00 0.00 0.00 0.00 0.00 0.00 0.00 0.00 0.00
0.00 0.00 0.00 0.00 0.00 0.00 0.00 0.00 0.00 0.00 0.00 0.00 0.00 0.00 0.00 0.00 0.00 0.00 0.00 0.00 0.00 0.00 0.00 0.00 0.00 0.00 0.00 0.00 0.00 0.00 0.00 0.00 0.00 0.00 0.00 0.00 0.00 0.00 0.00 0.00 0.00 0.00 0.00 0.00 0.00 0.00 0.00 0.00 0.00 0.00 0.00 0.00 0.00 0.00
0.00 0.00 0.00 0.00 0.00 0.00 0.00 0.00 0.00 0.00 0.00 0.00 0.00 0.00 0.00 0.00 0.00 0.00 0.00 0.00 0.00 0.00 0.00 0.00 0.00 0.00 0.00 0.00 0.00 0.00 0.00 0.00 0.00 0.00 0.00 0.00 0.00 0.00 0.00 0.00 0.00 0.00 0.00 0.00 0.00 0.00 0.00 0.00 0.00 0.00 0.00 0.00 0.00 0.00
0.00 0.00 0.00 0.00 0.00 0.00 0.00 0.00 0.00 0.00 0.00 0.00 0.00 0.00 0.00 0.00 0.00 0.00 0.00 0.00 0.00 0.00 0.00 0.00 0.00 0.00 0.00 0.00 0.00 0.00 0.00 0.00 0.00 0.00 0.00 0.00 0.00 0.00 0.00 0.00 0.00 0.00 0.00 0.00 0.00 0.00 0.00 0.00 0.00 0.00 0.00 0.00 0.00 0.00
0.00 0.00 0.00 0.00 0.00 0.00 0.00 0.00 0.00 0.00 0.00 0.00 0.00 0.00 0.00 0.00 0.00 0.00 0.00 0.00 0.00 0.00 0.00 0.00 0.00 0.00 0.00 0.00 0.00 0.00 0.00 0.00 0.00 0.00 0.00 0.00 0.00 0.00 0.00 0.00 0.00 0.00 0.00 0.00 0.00 0.00 0.00 0.00 0.00 0.00 0.00 0.00 0.00 0.00
0.00 0.00 0.00 0.00 0.00 0.00 0.00 0.00 0.00 0.00 0.00 0.00 0.00 0.00 0.00 0.00 0.00 0.00 0.00 0.00 0.00 0.00 0.00 0.00 0.00 0.00 0.00 0.00 0.00 0.00 0.00 0.00 0.00 0.01 0.01 0.01 0.02 0.01 0.00 0.00 0.00 0.00 0.00 0.00 0.00 0.00 0.00 0.00 0.00 0.00 0.00 0.00 0.00 0.00
MSLP
1008.52 1008.43 1008.31 1008.33 1008.46 1008.69 1008.58 1008.65 1008.78 1008.73 1008.99 1009.15 1009.16 1009.17 1009.35 1009.49 1009.85 1010.25 1010.22 1010.82 1011.21 1011.27 1010.99 1010.84 1010.59 1010.42 1010.56 1010.67 1010.83 1010.89 1011.91 1011.52 1012.21 1012.29 1011.98 1011.45 1010.91 1010.71 1011.24 1010.35 1011.30 1011.77 1012.56 1012.22 1012.43 1011.96 1011.44 1011.69 1013.74 1013.05 1009.70 1010.53 1011.07 1011.11
1008.25 1008.33 1008.20 1008.13 1008.13 1008.17 1008.36 1008.52 1008.45 1008.66 1008.97 1009.08 1008.91 1009.17 1009.13 1009.46 1009.62 1009.80 1010.28 1010.29 1010.39 1010.62 1010.68 1010.56 1010.22 1009.72 1009.96 1010.03 1010.17 1010.39 1009.89 1010.14 1010.38 1010.68 1010.09 1009.84 1009.66 1009.57 1009.54 1009.21 1008.56 1009.48 1008.18 1008.21 1009.18 1008.51 1008.68 1009.32 1009.55 1009.76 1010.30 1011.50 1011.91 1011.92
1007.93 1007.99 1008.04 1007.91 1007.94 1008.03 1007.95 1008.03 1008.25 1008.34 1008.53 1008.81 1008.92 1009.09 1008.84 1009.33 1009.54 1009.61 1010.23 1010.35 1010.63 1010.80 1010.51 1010.57 1009.45 1009.19 1009.43 1009.26 1009.78 1010.17 1009.97 1009.67 1009.89 1010.22 1009.93 1009.34 1008.91 1009.06 1008.40 1007.43 1007.60 1007.56 1007.61 1007.73 1008.38 1008.22 1008.73 1009.24 1009.65 1010.34 1010.81 1011.19 1011.95 1012.22
1007.78 1007.70 1007.65 1007.68 1007.76 1007.80 1007.79 1007.87 1007.98 1008.19 1008.41 1008.50 1008.71 1008.74 1008.78 1009.01 1009.38 1009.32 1009.98 1010.29 1010.78 1011.03 1010.61 1009.77 1009.27 1009.04 1009.01 1009.08 1009.38 1009.66 1009.72 1010.07 1010.06 1009.84 1009.72 1009.11 1008.95 1008.44 1007.96 1007.82 1007.92 1008.06 1008.53 1008.27 1007.98 1008.50 1008.88 1009.40 1010.26 1011.01 1011.17 1011.56 1012.28 1013.00
1007.53 1007.50 1007.45 1007.47 1007.52 1007.57 1007.66 1007.78 1007.92 1007.97 1008.06 1008.22 1008.33 1008.42 1008.45 1008.74 1009.16 1009.76 1009.80 1009.86 1010.01 1010.73 1010.64 1010.42 1010.21 1009.13 1008.86 1009.13 1009.35 1009.62 1009.79 1009.94 1010.08 1009.69 1008.78 1008.06 1008.18 1008.61 1008.15 1008.55 1008.50 1009.07 1009.16 1009.40 1008.84 1009.60 1010.33 1011.20 1011.52 1011.99 1012.61 1012.81 1013.09 1013.62
1007.32 1007.27 1007.26 1007.24 1007.28 1007.35 1007.63 1007.71 1007.82 1007.83 1007.99 1008.10 1008.19 1008.31 1008.56 1008.99 1009.59 1009.86 1009.94 1009.43 1009.87 1010.04 1010.64 1010.79 1010.17 1009.97 1009.62 1009.35 1009.45 1009.54 1009.61 1009.72 1009.63 1009.32 1008.32 1007.74 1007.56 1008.22 1008.01 1007.99 1008.43 1009.14 1009.93 1010.58 1010.96 1011.25 1011.67 1012.56 1012.95 1013.39 1014.01 1014.22 1014.32 1014.78
1007.33 1007.22 1007.08 1007.06 1007.09 1007.07 1007.20 1007.35 1007.52 1007.64 1007.72 1007.85 1007.99 1008.14 1008.27 1008.50 1009.05 1009.56 1009.62 1009.65 1009.55 1009.83 1010.23 1011.09 1011.22 1011.15 1011.01 1010.70 1010.83 1010.55 1010.12 1009.87 1009.75 1009.44 1008.75 1008.80 1008.66 1008.66 1008.76 1010.12 1011.72 1013.07 1013.07 1013.19 1013.90 1014.19 1014.25 1014.26 1014.52 1015.09 1015.53 1015.58 1015.61 1016.60
1007.55 1007.31 1007.07 1006.93 1006.93 1006.90 1006.96 1007.08 1007.23 1007.40 1007.53 1007.65 1007.77 1007.85 1008.03 1008.28 1008.88 1009.39 1009.51 1009.45 1009.62 1010.06 1010.63 1011.70 1012.22 1012.74 1012.23 1012.19 1012.26 1012.09 1011.38 1011.14 1010.37 1009.93 1009.94 1010.53 1009.73 1010.13 1012.00 1014.70 1015.85 1015.80 1015.62 1015.77 1015.95 1016.13 1016.24 1016.03 1016.13 1016.74 1016.88 1016.97 1017.38 1018.17
1008.08 1007.78 1007.52 1007.29 1007.19 1007.10 1007.14 1007.18 1007.25 1007.33 1007.42 1007.48 1007.66 1007.92 1008.64 1009.08 1009.51 1009.64 1009.49 1009.90 1010.55 1011.62 1012.07 1013.20 1014.52 1014.39 1013.83 1013.64 1013.23 1012.88 1012.50 1012.41 1011.64 1011.29 1011.15 1011.73 1012.30 1014.68 1017.34 1018.56 1018.62 1018.74 1019.09 1018.93 1017.99 1017.73 1017.54 1017.73 1017.62 1017.90 1017.98 1018.68 1019.37 1020.05
1009.01 1008.68 1008.35 1007.90 1007.52 1007.37 1007.37 1007.35 1007.31 1007.25 1007.14 1007.46 1008.31 1009.10 1009.79 1009.81 1009.60 1009.76 1010.07 1010.61 1011.97 1013.85 1014.93 1016.23 1016.76 1016.38 1015.70 1014.93 1014.10 1013.90 1013.21 1012.91 1012.71 1012.89 1013.04 1013.37 1016.40 1018.78 1019.82 1020.04 1020.29 1020.44 1020.28 1020.17 1019.16 1018.88 1019.31 1019.14 1018.99 1019.26 1019.70 1020.26 1020.82 1021.28
1009.66 1009.44 1009.03 1008.36 1007.86 1007.74 1007.53 1007.43 1007.54 1007.68 1007.86 1008.55 1009.70 1010.44 1010.67 1010.37 1010.39 1011.17 1012.52 1013.60 1015.22 1016.67 1017.77 1018.17 1018.03 1017.76 1016.34 1016.08 1015.27 1014.16 1013.55 1013.16 1013.38 1013.69 1014.27 1015.51 1018.17 1019.67 1020.28 1020.76 1021.06 1021.03 1021.13 1021.06 1020.75 1020.02 1019.99 1020.06 1020.02 1020.20 1020.61 1021.03 1021.63 1022.12
1010.42 1010.05 1009.79 1009.15 1008.78 1008.36 1008.19 1008.07 1008.16 1008.48 1009.13 1009.44 1010.12 1011.44 1012.23 1013.96 1014.45 1014.96 1016.95 1017.60 1018.35 1019.34 1019.43 1019.29 1019.04 1018.45 1017.11 1016.18 1015.52 1014.26 1013.96 1013.78 1014.02 1014.57 1015.42 1017.85 1020.48 1021.20 1021.31 1021.52 1021.64 1021.83 1021.80 1021.43 1021.21 1020.96 1020.66 1020.30 1020.54 1021.10 1021.49 1021.86 1022.50 1022.91
1011.03 1010.74 1010.34 1010.08 1009.85 1009.54 1009.28 1009.14 1009.16 1009.36 1009.75 1010.96 1012.41 1015.13 1016.74 1018.49 1019.30 1020.60 1021.43 1021.08 1021.10 1020.71 1020.65 1020.46 1019.99 1018.87 1017.34 1016.36 1015.57 1014.92 1014.54 1014.71 1015.19 1015.86 1017.92 1020.36 1021.32 1021.53 1021.74 1021.67 1021.76 1021.95 1021.89 1021.79 1021.84 1021.70 1021.81 1021.69 1021.45 1021.84 1022.18 1022.61 1023.08 1023.57
1011.66 1011.42 1011.17 1010.81 1010.63 1010.52 1010.31 1010.02 1009.87 1010.15 1011.46 1015.37 1017.78 1020.40 1021.95 1023.18 1023.70 1023.90 1024.05 1023.82 1022.92 1022.25 1021.91 1021.44 1020.65 1019.36 1017.66 1016.74 1015.76 1015.34 1015.35 1015.78 1016.71 1018.28 1020.31 1021.47 1021.81 1021.89 1021.89 1021.83 1021.88 1021.90 1022.24 1022.70 1022.98 1022.82 1022.59 1022.32 1022.52 1022.59 1022.76 1023.27 1023.44 1023.95
1012.23 1012.01 1011.76 1011.52 1011.26 1011.13 1011.15 1011.05 1010.84 1011.90 1015.40 1019.13 1020.93 1024.34 1025.65 1025.78 1025.53 1025.33 1025.00 1024.68 1023.84 1023.33 1023.24 1022.37 1021.34 1020.08 1018.36 1017.24 1016.43 1016.34 1016.64 1017.92 1019.46 1020.95 1021.78 1021.85 1021.96 1022.07 1021.95 1021.78 1021.84 1021.91 1022.16 1022.57 1022.77 1022.81 1022.79 1022.83 1022.96 1023.20 1023.48 1023.64 1023.80 1024.25
1012.57 1012.57 1012.32 1012.10 1012.06 1011.70 1011.74 1012.13 1012.71 1014.88 1019.19 1021.87 1024.62 1026.40 1027.11 1027.48 1027.38 1026.76 1026.25 1025.99 1024.48 1024.11 1023.69 1023.14 1022.10 1020.66 1019.42 1018.94 1018.40 1019.12 1019.61 1020.98 1021.96 1022.35 1022.44 1022.35 1022.17 1022.03 1021.88 1021.74 1021.72 1021.70 1021.81 1021.97 1022.24 1022.46 1022.70 1023.03 1023.34 1023.58 1023.73 1023.85 1023.95 1024.22
1013.00 1013.64 1013.13 1012.73 1012.57 1012.50 1012.36 1013.82 1016.12 1019.69 1022.78 1025.24 1027.47 1027.74 1028.03 1028.66 1028.74 1028.07 1027.33 1026.11 1025.10 1025.10 1025.03 1024.38 1023.64 1022.99 1022.07 1021.57 1021.72 1022.05 1022.94 1023.45 1023.38 1023.18 1022.92 1022.69 1022.31 1021.88 1021.62 1021.29 1021.20 1021.26 1021.30 1021.44 1021.69 1022.03 1022.35 1022.88 1023.42 1023.50 1023.62 1023.36 1023.50 1023.62
1014.33 1014.13 1013.12 1013.00 1013.04 1013.42 1015.27 1017.00 1019.77 1022.72 1026.13 1027.45 1027.98 1028.35 1028.52 1028.24 1028.39 1027.94 1027.01 1026.19 1025.93 1025.40 1025.31 1025.30 1025.14 1025.19 1025.34 1024.96 1024.33 1024.31 1024.29 1024.28 1024.16 1023.81 1023.29 1022.70 1022.18 1021.75 1021.39 1021.18 1020.89 1020.83 1020.81 1020.85 1021.02 1021.30 1021.76 1022.28 1022.61 1022.51 1022.44 1022.45 1022.73 1022.84
1014.44 1013.95 1013.37 1013.28 1013.36 1015.43 1018.22 1020.31 1021.55 1025.17 1027.22 1027.85 1028.03 1027.95 1028.00 1028.07 1027.80 1027.34 1027.18 1026.04 1025.53 1025.42 1025.77 1026.81 1027.51 1027.78 1027.29 1026.67 1026.09 1025.36 1025.07 1024.85 1024.27 1023.69 1023.23 1022.57 1021.96 1021.38 1020.86 1020.48 1020.19 1019.99 1019.99 1020.14 1020.31 1020.46 1020.65 1020.90 1021.02 1021.18 1021.26 1021.47 1021.59 1021.60
1014.25 1013.92 1013.68 1013.85 1013.79 1016.94 1020.66 1022.87 1023.08 1024.85 1027.02 1027.25 1027.71 1028.20 1028.32 1028.13 1027.76 1027.68 1027.48 1027.03 1026.64 1026.87 1028.05 1028.90 1029.03 1028.46 1027.95 1027.09 1026.68 1026.12 1025.59 1025.15 1024.62 1023.66 1022.82 1022.21 1021.63 1020.93 1020.32 1019.80 1019.38 1019.17 1019.18 1019.25 1019.39 1019.35 1019.69 1019.83 1019.86 1020.05 1020.26 1020.46 1020.51 1020.46
1014.12 1014.09 1013.97 1014.53 1016.83 1018.95 1022.32 1024.35 1025.43 1025.85 1026.62 1027.22 1027.93 1028.25 1028.59 1028.33 1028.59 1028.63 1028.44 1028.00 1028.18 1029.37 1029.36 1028.91 1028.69 1028.08 1027.46 1027.06 1026.76 1026.40 1025.85 1025.33 1024.78 1024.17 1023.05 1021.85 1020.95 1020.75 1019.94 1019.30 1018.81 1018.62 1018.63 1018.53 1018.53 1018.44 1018.09 1018.17 1018.38 1018.63 1018.89 1018.85 1018.91 1019.17
1014.99 1014.69 1015.22 1015.93 1018.67 1020.95 1023.04 1024.81 1025.12 1025.71 1026.36 1027.72 1028.26 1028.56 1029.54 1029.88 1029.97 1029.57 1029.25 1029.17 1029.52 1029.12 1028.77 1028.62 1028.27 1028.08 1027.69 1027.21 1026.75 1026.40 1025.89 1025.27 1024.54 1023.84 1022.93 1022.00 1021.27 1020.56 1019.80 1019.18 1018.46 1017.99 1017.82 1017.67 1017.59 1017.52 1017.41 1017.35 1017.35 1017.56 1017.83 1017.92 1018.00 1018.22
1015.05 1015.56 1017.05 1018.50 1020.27 1022.16 1024.83 1025.04 1025.59 1026.00 1026.77 1027.87 1028.47 1029.40 1030.32 1030.54 1029.97 1029.67 1029.82 1029.70 1028.97 1028.14 1027.87 1027.84 1027.62 1027.44 1027.31 1026.74 1026.49 1026.06 1025.49 1025.07 1024.36 1023.64 1022.97 1022.24 1021.44 1020.59 1019.76 1019.01 1018.46 1017.84 1017.23 1016.79 1016.72 1016.75 1016.70 1016.51 1016.52 1016.44 1016.96 1017.06 1017.43 1017.67
1016.22 1018.93 1020.58 1021.82 1022.69 1024.27 1025.11 1025.81 1026.10 1026.56 1027.14 1027.64 1028.64 1029.56 1029.99 1030.04 1029.80 1029.67 1029.93 1029.40 1028.43 1027.80 1027.82 1027.59 1027.36 1027.21 1026.74 1026.39 1026.33 1025.59 1025.10 1024.60 1024.13 1023.44 1022.90 1022.30 1021.41 1020.51 1019.89 1019.07 1018.28 1017.61 1017.04 1016.47 1016.18 1016.13 1016.15 1016.17 1015.98 1016.07 1016.33 1016.65 1016.89 1017.21
1018.40 1022.75 1023.45 1024.27 1024.48 1024.86 1025.97 1026.42 1027.01 1027.02 1028.09 1028.46 1028.65 1029.04 1029.22 1029.48 1029.68 1029.82 1029.53 1028.67 1028.46 1027.76 1027.56 1027.09 1026.92 1026.85 1026.60 1025.82 1025.27 1024.83 1024.42 1024.35 1023.94 1023.28 1022.57 1022.23 1021.57 1020.71 1019.81 1018.97 1018.02 1017.35 1016.77 1016.39 1016.15 1016.02 1015.93 1015.89 1015.98 1016.05 1016.11 1016.23 1016.44 1016.73
1020.94 1024.63 1025.27 1025.64 1025.88 1026.12 1026.95 1027.43 1027.57 1027.90 1028.00 1028.13 1028.33 1028.39 1028.51 1028.55 1028.88 1028.85 1028.74 1028.46 1028.40 1027.70 1027.17 1026.86 1026.72 1026.31 1025.80 1025.43 1024.85 1024.35 1024.00 1023.87 1023.68 1023.15 1022.40 1021.97 1021.59 1021.01 1020.13 1019.22 1018.41 1017.46 1016.88 1016.78 1016.45 1016.11 1015.86 1015.67 1015.63 1015.70 1015.82 1015.92 1015.64 1015.96
1023.78 1025.42 1026.11 1026.43 1026.53 1026.93 1027.11 1027.30 1027.57 1027.77 1027.80 1027.94 1027.65 1027.54 1027.48 1027.77 1027.73 1027.81 1027.92 1028.11 1028.18 1027.58 1027.12 1026.89 1026.80 1026.43 1025.81 1025.12 1024.48 1024.04 1023.63 1023.49 1023.45 1023.05 1022.39 1021.77 1021.15 1020.68 1020.08 1019.51 1018.87 1018.18 1017.68 1017.22 1016.75 1016.33 1015.96 1015.50 1015.24 1015.25 1015.38 1015.59 1015.79 1016.01
1025.59 1026.24 1026.67 1026.85 1026.85 1027.18 1027.60 1027.90 1027.90 1027.92 1027.81 1027.59 1027.48 1027.47 1027.43 1027.07 1027.28 1027.78 1028.05 1028.06 1027.92 1027.56 1027.22 1026.74 1026.33 1026.07 1025.94 1025.44 1024.85 1024.17 1023.55 1023.19 1022.91 1022.48 1022.04 1021.38 1020.68 1020.20 1019.73 1019.29 1018.95 1017.88 1017.16 1016.98 1016.42 1016.15 1015.83 1015.36 1014.90 1014.82 1014.96 1015.23 1015.51 1015.78
1026.14 1026.48 1026.74 1026.97 1027.08 1027.47 1027.82 1028.19 1028.33 1028.36 1028.41 1028.21 1027.90 1027.44 1026.90 1026.83 1027.53 1028.09 1028.26 1028.13 1027.92 1027.50 1027.08 1026.58 1026.07 1025.78 1025.59 1025.21 1024.75 1024.41 1023.83 1023.22 1022.95 1022.59 1021.97 1021.17 1020.28 1019.42 1019.02 1018.80 1018.51 1018.00 1017.55 1017.11 1016.55 1015.84 1015.21 1014.58 1014.01 1014.08 1014.52 1014.91 1015.28 1015.65
1026.43 1026.52 1026.50 1026.91 1027.33 1027.85 1028.35 1028.76 1028.88 1028.94 1028.89 1028.66 1028.44 1027.69 1027.25 1027.29 1028.00 1028.47 1028.47 1028.18 1027.90 1027.64 1027.28 1026.99 1026.57 1026.24 1026.16 1025.55 1024.91 1024.30 1023.75 1023.28 1023.24 1022.85 1022.16 1021.18 1020.16 1019.23 1018.69 1018.32 1017.75 1017.39 1017.07 1017.01 1016.82 1016.16 1015.29 1014.71 1014.06 1013.51 1014.47 1015.11 1015.53 1015.94
1026.66 1026.59 1026.89 1027.24 1027.70 1028.43 1028.98 1029.39 1029.48 1029.38 1029.59 1029.23 1029.05 1028.50 1027.72 1027.87 1028.18 1028.63 1028.64 1028.40 1028.16 1027.75 1027.27 1026.74 1026.54 1026.49 1026.31 1025.96 1025.59 1024.90 1024.02 1023.63 1023.12 1022.19 1021.28 1020.02 1018.89 1018.17 1017.69 1017.25 1016.88 1016.72 1016.76 1016.81 1016.52 1016.04 1015.45 1014.98 1014.56 1014.48 1014.96 1015.48 1015.85 1016.31
1026.91 1027.59 1028.03 1028.10 1028.41 1029.21 1029.64 1030.09 1030.19 1029.91 1029.87 1029.30 1028.92 1028.29 1027.67 1028.04 1028.56 1028.73 1028.61 1028.51 1028.20 1027.96 1027.78 1027.49 1027.31 1027.14 1027.04 1026.90 1026.40 1025.91 1024.74 1024.62 1023.48 1021.94 1019.91 1017.79 1016.63 1016.53 1016.35 1016.27 1016.11 1016.20 1016.32 1016.26 1016.06 1015.63 1015.19 1014.85 1014.73 1015.05 1015.56 1016.02 1016.46 1016.91
1027.41 1027.93 1028.42 1029.08 1029.14 1029.71 1030.41 1030.60 1030.77 1030.37 1029.73 1029.63 1028.98 1028.62 1028.29 1028.64 1028.73 1029.03 1028.79 1028.80 1028.99 1029.05 1028.85 1028.39 1028.02 1027.93 1027.59 1027.23 1026.87 1026.16 1025.33 1024.80 1023.72 1021.74 1019.34 1017.57 1016.37 1015.77 1015.30 1014.78 1015.05 1015.57 1015.97 1016.09 1015.76 1015.47 1015.27 1015.28 1015.60 1016.02 1016.44 1016.86 1017.28 1017.68
Thickness
5285 5293 5300 5306 5312 5315 5322 5327 5333 5340 5345 5349 5353 5357 5361 5368 5369 5364 5369 5366 5363 5360 5375 5382 5390 5397 5395 5404 5406 5409 5404 5404 5402 5406 5411 5418 5418 5416 5411 5441 5416 5416 5401 5406 5405 5405 5407 5406 5393 5423 5470 5411 5414 5419
5267 5272 5279 5286 5292 5297 5302 5304 5310 5316 5324 5329 5336 5339 5342 5344 5344 5343 5349 5352 5351 5350 5358 5365 5373 5389 5384 5386 5389 5385 5399 5396 5399 5401 5403 5400 5404 5398 5398 5410 5433 5402 5430 5442 5421 5413 5408 5391 5430 5412 5390 5388 5381 5380
5258 5262 5265 5271 5276 5281 5288 5292 5295 5301 5305 5309 5315 5319 5325 5326 5327 5327 5326 5328 5326 5322 5329 5335 5366 5369 5358 5370 5368 5365 5363 5380 5380 5377 5380 5387 5388 5390 5403 5411 5415 5401 5400 5414 5412 5411 5389 5384 5380 5374 5365 5369 5359 5357
5249 5252 5257 5262 5265 5270 5274 5279 5283 5286 5289 5293 5297 5301 5306 5309 5309 5307 5308 5310 5308 5302 5306 5325 5334 5339 5341 5344 5344 5342 5349 5346 5348 5356 5356 5361 5365 5367 5378 5380 5384 5394 5366 5360 5380 5380 5375 5371 5364 5354 5352 5347 5340 5332
5245 5247 5249 5252 5256 5260 5263 5266 5268 5273 5278 5281 5284 5287 5290 5292 5292 5289 5293 5297 5296 5289 5285 5296 5302 5321 5321 5321 5322 5318 5319 5324 5325 5331 5341 5347 5350 5346 5351 5345 5350 5352 5352 5353 5364 5359 5350 5347 5324 5319 5321 5318 5314 5311
5246 5247 5247 5249 5250 5252 5252 5255 5257 5262 5264 5267 5271 5273 5274 5273 5272 5272 5266 5281 5279 5276 5270 5258 5276 5287 5290 5296 5294 5295 5298 5298 5304 5311 5319 5327 5338 5327 5334 5340 5347 5323 5309 5306 5324 5299 5298 5285 5280 5279 5281 5277 5276 5273
5246 5247 5248 5249 5250 5251 5252 5252 5252 5253 5256 5258 5261 5264 5265 5264 5263 5255 5251 5263 5266 5262 5261 5253 5243 5257 5258 5266 5267 5265 5267 5274 5276 5281 5290 5302 5301 5307 5319 5323 5281 5250 5255 5254 5248 5250 5255 5247 5251 5241 5242 5239 5240 5228
5244 5246 5247 5248 5249 5251 5251 5251 5251 5251 5251 5253 5254 5257 5257 5255 5251 5250 5249 5252 5251 5251 5248 5244 5241 5229 5229 5228 5226 5221 5229 5230 5240 5248 5249 5252 5264 5270 5284 5205 5207 5213 5219 5213 5207 5206 5205 5208 5209 5206 5208 5209 5205 5198
5239 5239 5241 5243 5244 5245 5245 5245 5246 5246 5247 5248 5248 5247 5242 5240 5237 5235 5237 5235 5232 5229 5233 5213 5204 5187 5200 5208 5204 5204 5202 5203 5205 5219 5225 5226 5243 5200 5154 5158 5167 5171 5166 5169 5176 5176 5178 5178 5182 5179 5180 5175 5170 5162
5231 5231 5232 5234 5237 5238 5239 5240 5241 5242 5243 5241 5235 5225 5207 5227 5226 5227 5222 5222 5209 5191 5179 5162 5155 5175 5173 5172 5180 5187 5181 5177 5182 5177 5180 5205 5149 5139 5133 5135 5136 5137 5138 5142 5159 5161 5153 5156 5158 5152 5148 5143 5140 5133
5228 5225 5225 5227 5231 5233 5235 5237 5236 5234 5232 5224 5210 5212 5212 5212 5211 5203 5194 5182 5168 5155 5147 5143 5144 5145 5153 5154 5155 5169 5174 5174 5179 5169 5178 5171 5136 5129 5123 5119 5117 5118 5121 5125 5128 5133 5130 5130 5130 5131 5126 5123 5118 5115
5229 5228 5227 5227 5227 5229 5229 5230 5229 5226 5221 5217 5212 5200 5193 5177 5172 5173 5144 5146 5141 5130 5128 5125 5123 5129 5137 5147 5150 5161 5162 5164 5173 5150 5158 5135 5105 5099 5105 5103 5104 5104 5105 5110 5110 5114 5117 5121 5117 5112 5107 5104 5098 5094
5234 5232 5231 5229 5228 5227 5227 5226 5225 5221 5218 5206 5186 5163 5154 5130 5127 5113 5106 5120 5112 5115 5111 5110 5108 5114 5124 5135 5139 5144 5149 5147 5128 5143 5121 5091 5082 5087 5087 5087 5088 5087 5090 5092 5089 5089 5088 5090 5093 5089 5086 5082 5076 5073
5241 5238 5235 5233 5231 5229 5227 5225 5223 5219 5203 5164 5145 5127 5112 5099 5095 5093 5087 5080 5089 5082 5094 5092 5083 5101 5114 5122 5130 5131 5127 5124 5124 5101 5069 5052 5054 5067 5069 5075 5075 5077 5070 5065 5065 5067 5071 5075 5070 5069 5068 5062 5061 5059
5246 5243 5240 5237 5234 5231 5229 5225 5221 5211 5175 5139 5134 5092 5087 5082 5075 5068 5062 5062 5068 5057 5057 5065 5070 5080 5094 5110 5116 5115 5112 5087 5071 5054 5041 5057 5062 5049 5053 5060 5057 5057 5055 5051 5048 5050 5050 5051 5052 5050 5048 5045 5045 5042
5250 5247 5245 5240 5235 5233 5229 5223 5213 5193 5148 5126 5102 5083 5071 5060 5051 5040 5028 5028 5036 5029 5031 5043 5051 5073 5087 5080 5082 5063 5066 5041 5037 5035 5037 5039 5041 5042 5044 5047 5045 5044 5044 5044 5042 5040 5040 5038 5038 5036 5031 5030 5031 5029
5258 5246 5243 5239 5236 5233 5227 5209 5191 5147 5121 5106 5086 5065 5053 5039 5041 5032 5019 5031 5024 5021 5013 5001 5014 5039 5039 5039 5032 5028 5012 5008 5009 5011 5014 5016 5020 5023 5025 5029 5031 5029 5031 5031 5030 5029 5028 5024 5017 5017 5021 5023 5020 5020
5248 5244 5243 5237 5236 5230 5213 5194 5164 5135 5099 5071 5089 5072 5055 5043 5038 5032 5027 5023 5023 5024 5019 5016 5006 4987 4981 4979 4988 4984 4989 4987 4987 4989 4992 4997 5002 5006 5009 5009 5013 5014 5017 5018 5019 5018 5014 5010 5011 5015 5016 5016 5013 5012
5254 5252 5250 5245 5241 5220 5199 5174 5156 5114 5091 5079 5070 5061 5059 5057 5045 5035 5026 5030 5021 5014 5007 4980 4960 4949 4967 4960 4974 4975 4971 4969 4971 4973 4973 4977 4984 4991 4995 4998 5001 5003 5004 5003 5006 5009 5010 5008 5009 5011 5011 5010 5010 5010
5262 5259 5255 5247 5240 5208 5178 5149 5140 5125 5103 5097 5073 5070 5061 5057 5046 5035 5027 5025 5014 4993 4983 4960 4955 4962 4967 4970 4966 4962 4960 4959 4957 4961 4962 4964 4966 4972 4979 4987 4992 4996 4996 4996 4996 5004 4999 5001 5002 5002 5002 5002 5001 5004
5272 5267 5260 5251 5219 5195 5159 5127 5125 5112 5099 5100 5068 5072 5065 5050 5034 5018 5008 5011 4994 4968 4968 4966 4964 4966 4955 4955 4954 4954 4951 4949 4947 4947 4951 4955 4962 4959 4965 4971 4977 4978 4980 4985 4987 4990 5003 5000 4999 5000 4999 5002 5004 5003
5266 5263 5249 5238 5205 5177 5157 5129 5131 5116 5108 5086 5076 5060 5038 5037 5019 5007 4996 4988 4969 4978 4975 4972 4972 4960 4964 4952 4949 4940 4939 4936 4938 4939 4943 4947 4946 4948 4952 4957 4963 4967 4968 4971 4976 4980 4984 4988 4992 4993 4992 4994 4998 4997
5272 5261 5236 5219 5211 5183 5159 5131 5139 5104 5124 5095 5059 5064 5043 5022 5013 5007 4994 4976 4986 4987 4976 4969 4962 4950 4946 4948 4938 4936 4931 4928 4931 4931 4930 4931 4934 4939 4943 4946 4949 4953 4958 4963 4965 4967 4971 4978 4982 4987 4984 4988 4987 4987
5268 5233 5212 5191 5174 5175 5138 5129 5114 5108 5095 5091 5071 5078 5049 5023 5013 4998 4997 4981 4988 4982 4975 4965 4959 4956 4950 4939 4934 4935 4933 4925 4923 4922 4922 4921 4923 4927 4930 4933 4937 4941 4945 4950 4955 4957 4959 4962 4970 4974 4975 4976 4978 4978
5262 5220 5199 5190 5153 5173 5143 5134 5115 5119 5106 5066 5076 5066 5047 5017 5013 4997 4998 4991 4980 4981 4975 4971 4962 4953 4949 4949 4941 4935 4927 4918 4915 4913 4913 4911 4913 4914 4917 4922 4928 4931 4935 4939 4941 4944 4947 4950 4953 4957 4962 4965 4968 4969
5228 5186 5192 5160 5162 5161 5131 5138 5112 5104 5083 5079 5065 5042 5019 5024 5034 5027 4997 4986 4983 4980 4980 4972 4963 4957 4949 4938 4935 4929 4921 4913 4907 4903 4902 4901 4900 4900 4901 4906 4908 4917 4922 4922 4926 4931 4935 4940 4944 4947 4950 4955 4965 4965
5228 5192 5175 5163 5156 5144 5142 5124 5114 5103 5097 5097 5076 5062 5056 5064 5060 5029 5002 4992 4981 4976 4970 4960 4948 4940 4935 4931 4925 4918 4910 4901 4893 4891 4888 4886 4886 4885 4888 4888 4887 4894 4901 4905 4911 4917 4923 4930 4936 4940 4944 4947 4951 4955
5195 5180 5191 5165 5153 5138 5134 5118 5109 5110 5098 5082 5078 5081 5077 5071 5058 5018 4996 4987 4975 4968 4961 4951 4944 4935 4925 4915 4907 4901 4895 4888 4879 4873 4868 4864 4864 4866 4868 4871 4873 4879 4889 4890 4899 4906 4913 4920 4928 4934 4938 4941 4945 4949
5197 5180 5171 5165 5146 5135 5126 5127 5118 5102 5086 5074 5082 5080 5067 5047 5026 5006 4996 4986 4975 4966 4964 4956 4948 4935 4920 4907 4894 4882 4874 4868 4859 4854 4846 4842 4840 4840 4845 4849 4855 4861 4868 4875 4886 4897 4907 4917 4926 4932 4935 4938 4941 4943
5196 5180 5183 5161 5166 5163 5137 5113 5104 5087 5078 5069 5059 5056 5051 5039 5020 5003 4992 4982 4978 4969 4956 4939 4929 4916 4903 4894 4888 4876 4859 4847 4831 4824 4819 4816 4816 4820 4822 4830 4839 4848 4858 4862 4871 4883 4898 4909 4919 4932 4930 4931 4934 4937
5188 5185 5173 5163 5163 5139 5123 5107 5095 5092 5069 5057 5050 5049 5050 5033 5019 5002 4989 4979 4969 4958 4953 4946 4929 4911 4897 4883 4867 4855 4844 4830 4815 4808 4804 4807 4810 4812 4815 4822 4831 4840 4848 4856 4867 4877 4891 4901 4911 4921 4923 4926 4929 4932
5191 5169 5164 5172 5155 5125 5114 5102 5087 5076 5065 5065 5062 5046 5047 5031 5014 5003 4991 4979 4972 4961 4947 4933 4917 4901 4882 4865 4851 4837 4829 4813 4807 4805 4811 4818 4822 4821 4821 4825 4832 4839 4848 4858 4867 4880 4892 4902 4913 4917 4919 4922 4924 4927
5180 5163 5151 5148 5143 5136 5111 5101 5086 5083 5071 5062 5057 5047 5039 5025 5013 4998 4988 4975 4962 4948 4934 4922 4908 4892 4878 4865 4852 4841 4832 4820 4812 4810 4820 4827 4832 4834 4837 4844 4848 4850 4854 4863 4875 4886 4897 4905 4909 4913 4916 4918 4921 4924